Oxford, CT

12:46 PM EDT on July 23, 2017 (GMT -0400)
Waterbury-Oxford

Weather History for KOXC - August, 2013

Change the Weather History Date:

Tuesday, August 27, 2013

  Actual Average Record
Temperature  
Mean Temperature 73 °F -  
Max Temperature 80 °F 74 °F 86 °F (2014)
Min Temperature 66 °F 57 °F 48 °F (2008)
Cooling Degree Days 8    
Growing Degree Days 23 (Base 50)    
Moisture  
Dew Point 65 °F    
Average Humidity 79    
Maximum Humidity 88    
Minimum Humidity 65    
Precipitation  
Precipitation 0.00 in - - ()
Sea Level Pressure  
Sea Level Pressure 29.92 in    
Wind  
Wind Speed 6 mph (North)    
Max Wind Speed 15 mph    
Max Gust Speed 21 mph    
Visibility 9 miles    
Events Rain    
Averages and records for this station are not official NWS values.
T = Trace of Precipitation, MM = Missing Value Source: NWS Daily Summary

Daily Weather History Graph

Daily Weather History Graph

Search for Another Location

Airport or City:

Trip Planner

Search our weather history database for the weather conditions in past years. The results will help you decide how hot, cold, wet, or windy it might be!

Date:

Astronomy

Aug. 27, 2013 Rise Set
Actual Time 6:13 AM EDT 7:33 PM EDT
Civil Twilight 5:45 AM EDT 8:02 PM EDT
Nautical Twilight 5:10 AM EDT 8:36 PM EDT
Astronomical Twilight 4:33 AM EDT 9:12 PM EDT
Moon 11:19 PM EDT (8/27) 1:14 PM EDT (8/27)
Length of Visible Light 14h 16m
Length of Day
13h 19m
Waning Gibbous, 57% of the Moon is Illuminated
Aug 27
Waning Gibbous
Aug 28
Last Quarter
Sep 5
New
Sep 12
First Quarter
Sep 19
Full

Hourly Weather History & Observations

Time (EDT) Temp. Heat Index Dew Point Humidity Pressure Visibility Wind Dir Wind Speed Gust Speed Precip Events Conditions
12:15 AM 68.0 °F - 64.4 °F 88% 29.95 in 3.0 mi Calm Calm - 0.01 in   Overcast
6:45 AM 68.0 °F - 62.6 °F 83% 29.86 in 5.0 mi NNE 9.2 mph - N/A Rain Light Rain
7:45 AM 68.0 °F - 62.6 °F 83% 29.87 in 6.0 mi ENE 5.8 mph - N/A   Overcast
8:50 AM 69.8 °F - 64.4 °F 83% 29.89 in 6.0 mi North 8.1 mph - N/A   Overcast
9:50 AM 71.6 °F - 66.2 °F 83% 29.91 in 7.0 mi North 10.4 mph - N/A   Overcast
10:45 AM 73.4 °F - 66.2 °F 78% 29.91 in 7.0 mi NNE 11.5 mph 20.7 mph N/A   Mostly Cloudy
11:45 AM 75.2 °F - 66.2 °F 73% 29.92 in 9.0 mi North 15.0 mph 20.7 mph N/A   Overcast
12:45 PM 75.2 °F - 66.2 °F 73% 29.91 in 10.0 mi North 11.5 mph 18.4 mph N/A   Mostly Cloudy
1:45 PM 78.8 °F - 66.2 °F 65% 29.92 in 10.0 mi NNE 12.7 mph 18.4 mph N/A   Mostly Cloudy
2:45 PM 80.6 °F 83.9 °F 69.8 °F 70% 29.91 in 10.0 mi NNW 12.7 mph - N/A   Mostly Cloudy
3:45 PM 80.6 °F 83.2 °F 68.0 °F 65% 29.90 in 10.0 mi North 11.5 mph 17.3 mph N/A   Scattered Clouds
4:45 PM 80.6 °F 83.2 °F 68.0 °F 65% 29.89 in 10.0 mi NNW 5.8 mph - N/A   Scattered Clouds
5:45 PM 80.6 °F 83.2 °F 68.0 °F 65% 29.90 in 10.0 mi NW 4.6 mph - N/A   Partly Cloudy
6:45 PM 77.0 °F - 66.2 °F 69% 29.91 in 10.0 mi NW 3.5 mph - N/A   Partly Cloudy
7:45 PM 75.2 °F - 66.2 °F 73% 29.91 in 10.0 mi North 3.5 mph - N/A   Partly Cloudy
8:45 PM 71.6 °F - 66.2 °F 83% 29.92 in 10.0 mi Calm Calm - N/A   Clear
9:15 PM 69.8 °F - 64.4 °F 83% 29.93 in 8.0 mi Calm Calm - N/A   Clear
9:35 PM 69.8 °F - 64.4 °F 83% 29.93 in 10.0 mi Calm Calm - N/A   Clear
9:55 PM 69.8 °F - 64.4 °F 83% 29.93 in 10.0 mi Calm Calm - N/A   Clear
10:15 PM 68.0 °F - 64.4 °F 88% 29.94 in 10.0 mi WNW 3.5 mph - N/A   Clear
10:35 PM 68.0 °F - 64.4 °F 88% 29.94 in 10.0 mi Calm Calm - N/A   Clear
10:55 PM 68.0 °F - 64.4 °F 88% 29.94 in 10.0 mi North 3.5 mph - N/A   Clear
11:15 PM 68.0 °F - 64.4 °F 88% 29.95 in 10.0 mi North 3.5 mph - N/A   Clear
11:35 PM 66.2 °F - 62.6 °F 88% 29.95 in 9.0 mi Calm Calm - N/A   Partly Cloudy
11:55 PM 66.2 °F - 62.6 °F 88% 29.95 in 10.0 mi Calm Calm - N/A   Clear